N8DH Weather Reports


Display with metric or nautical units.
time (UTC)temp
F
wind
direction
speed
MPH
gust
MPH
rain 1hr
in
rain 24hr
in
rain mn
in
humidity
%
barometer
mb
20260505221552 50 299 1.0 4.0 0.14 0.51 0.51 92 1001.3
20260505220038 52 305 0.0 3.0 0.14 0.48 0.48 93 1000.8
20260505214606 53 240 1.0 2.0 0.16 0.46 0.46 92 1000.8
20260505213040 56 205 0.0 3.0 0.17 0.41 0.41 93 1000.4
20260505211612 56 232 1.0 5.0 0.17 0.37 0.37 93 1000.5
20260505210016 56 220 0.0 4.0 0.19 0.34 0.34 93 1000.5
20260505204608 56 202 0.0 4.0 0.18 0.30 0.30 93 1000.6
20260505203041 56 294 1.0 3.0 0.16 0.24 0.24 93 1000.7
20260505201604 56 247 0.0 5.0 0.15 0.20 0.20 92 1000.6
20260505200029 57 276 0.0 4.0 0.12 0.15 0.15 92 1000.6
20260505194607 57 294 0.0 4.0 0.11 0.12 0.12 91 1000.6
20260505193002 57 259 1.0 5.0 0.08 0.08 0.08 90 1000.8
20260505191602 57 227 0.0 5.0 0.05 0.05 0.05 89 1000.9
20260505190142 58 252 2.0 4.0 0.03 0.03 0.03 87 1000.9
20260505184506 58 239 1.0 5.0 0.01 0.01 0.01 86 1001.0
20260505183100 60 244 2.0 7.0 0.00 0.00 0.00 81 1001.1
20260505181509 61 270 2.0 8.0 0.00 0.00 0.00 76 1000.8
20260505174638 63 253 4.0 10.0 0.00 0.00 0.00 71 1000.6
20260505173143 64 219 6.0 15.0 0.00 0.00 0.00 70 1000.6
20260505171541 64 193 4.0 10.0 0.00 0.00 0.00 70 1000.6
20260505170109 63 200 2.0 11.0 0.00 0.00 0.00 71 1000.6
20260505164551 64 234 6.0 12.0 0.00 0.00 0.00 69 1000.6
20260505163106 64 250 4.0 14.0 0.00 0.00 0.00 68 1000.6
20260505161642 64 275 5.0 17.0 0.00 0.00 0.00 68 1000.4
20260505153046 67 205 9.0 21.0 0.00 0.00 0.00 62 999.9
20260505151611 66 206 11.0 25.0 0.00 0.00 0.00 63 999.3
20260505150144 66 229 7.0 20.0 0.00 0.00 0.00 63 999.0
20260505140110 64 188 3.0 17.0 0.00 0.00 0.00 67 999.2
20260505130103 61 184 8.0 18.0 0.00 0.00 0.00 73 998.7
20260505124644 61 204 5.0 10.0 0.00 0.00 0.00 74 999.0
20260505123047 61 184 7.0 17.0 0.00 0.00 0.00 73 999.1
20260505121521 61 211 7.0 11.0 0.00 0.00 0.00 71 998.8
20260505120051 61 187 6.0 13.0 0.00 0.00 0.00 71 998.5
20260505114642 61 177 5.0 9.0 0.00 0.00 0.00 71 997.9
20260505113018 60 185 4.0 7.0 0.00 0.00 0.00 72 997.3
20260505111557 60 200 7.0 11.0 0.00 0.00 0.00 72 997.1
20260505101515 62 241 4.0 13.0 0.00 0.00 0.00 69 997.3
20260505100055 62 211 9.0 18.0 0.00 0.00 0.00 68 997.3
20260505094647 63 199 8.0 16.0 0.00 0.00 0.00 66 997.2
20260505093057 63 199 8.0 15.0 0.00 0.00 0.00 65 996.6
20260505091551 64 170 7.0 16.0 0.00 0.00 0.00 64 996.5
20260505090108 64 212 6.0 16.0 0.00 0.00 0.00 64 996.6
20260505084553 65 201 8.0 14.0 0.00 0.00 0.00 62 996.2
20260505083142 66 203 14.0 22.0 0.00 0.00 0.00 60 996.1
20260505081550 66 179 10.0 19.0 0.00 0.00 0.00 59 996.0
20260505080110 67 187 8.0 23.0 0.00 0.00 0.00 58 996.0
20260505074639 67 236 10.0 22.0 0.00 0.00 0.00 57 995.8
20260505073029 68 204 13.0 22.0 0.00 0.00 0.00 56 995.7
20260505071610 68 205 8.0 21.0 0.00 0.00 0.00 56 995.8
20260505070135 68 219 9.0 19.0 0.00 0.00 0.00 56 995.8
20260505064508 68 197 9.0 27.0 0.00 0.00 0.00 57 995.8
20260505063058 68 208 11.0 18.0 0.00 0.00 0.00 57 995.8
20260505061515 67 202 7.0 19.0 0.00 0.00 0.00 60 995.8
20260505060054 67 166 6.0 18.0 0.00 0.00 0.00 62 995.9
20260505054521 66 165 8.0 16.0 0.00 0.00 0.00 62 996.0
20260505053052 66 174 7.0 16.0 0.00 0.00 0.00 63 996.2
20260505051646 66 184 8.0 18.0 0.00 0.00 0.00 63 996.3
20260505041520 66 165 7.0 13.0 0.00 0.00 0.00 65 996.8
20260505040016 65 181 5.0 11.0 0.00 0.00 0.00 66 996.9
20260505034552 65 169 5.0 10.0 0.00 0.00 0.00 66 996.9
20260505033033 64 185 5.0 10.0 0.00 0.00 0.00 67 997.1
20260505031517 64 156 5.0 8.0 0.00 0.00 0.00 66 997.2
20260505030015 65 157 5.0 10.0 0.00 0.00 0.00 64 997.2
20260505024530 65 167 5.0 9.0 0.00 0.00 0.00 64 997.4
20260505023010 65 181 4.0 10.0 0.00 0.00 0.00 64 997.4
20260505021526 65 153 5.0 10.0 0.00 0.00 0.00 62 997.3
20260505020008 65 214 4.0 9.0 0.00 0.00 0.00 62 997.2
20260505014527 66 157 4.0 13.0 0.00 0.00 0.00 60 997.1
20260505013026 67 174 6.0 15.0 0.00 0.00 0.00 58 997.2
20260505011526 67 189 7.0 15.0 0.00 0.00 0.00 57 997.2
20260505010018 68 173 8.0 16.0 0.00 0.00 0.00 55 997.0
20260505004534 69 183 9.0 21.0 0.00 0.00 0.00 54 996.8
20260505003018 69 190 7.0 12.0 0.00 0.00 0.00 54 996.6
20260505001518 69 193 5.0 12.0 0.00 0.00 0.00 53 996.5
20260505000015 70 217 7.0 15.0 0.00 0.00 0.00 50 996.4
20260504234509 71 209 7.0 18.0 0.00 0.00 0.00 50 996.2
20260504233012 71 189 12.0 22.0 0.00 0.00 0.00 50 995.9
20260504231510 71 192 11.0 21.0 0.00 0.00 0.00 52 995.9
20260504230010 72 211 10.0 17.0 0.00 0.00 0.00 53 996.0
20260504224510 72 192 14.0 24.0 0.00 0.00 0.00 52 996.1
20260504223034 72 200 11.0 19.0 0.00 0.00 0.00 54 996.2